Regional Weather Roundup
Issued by NWS

Home | Current Version | Previous Version | Text Only | Print | Product List | Glossary On
Versions: 1 2 3 4 5 6 7 8 9 10 11 12 13 14 15 16 17 18 19 20 21 22 23 24 25 26 27 28 29 30 31 32 33 34 35 36 37 38 39 40 41 42 43 44 45 46 47 48 49 50
000
ASPQ40 PGUM 261012
RWRPQ
WEATHER ROUNDUP FOR THE MARIANAS AND MICRONESIA
NATIONAL WEATHER SERVICE TIYAN GU
800 PM CHST FRI DEC 26 2014

GUZ001>004-261100-
MARIANA ISLANDS-

CITY           SKY/WX    TMP DP  RH WIND       PRES   REMARKS
GUAM AIRPORT   PTCLDY    81  73  78 E14       29.87R
ANDERSEN AFB   PTCLDY    79  73  83 NE17      29.88R
ROTA AIRPORT   PTCLDY    79  73  83 E13       29.89R
TINIAN AP      PTCLDY    81  73  78 E13       29.87R
SAIPAN AP      PTCLDY    81  72  74 E16G25    29.89R

$$

PMZ161-261100-
REPUBLIC OF PALAU-

CITY           SKY/WX    TMP DP  RH WIND       PRES   REMARKS
KOROR AP       CLOUDY    79  79 100 E8        29.70R
KOROR WSO      CLOUDY    81  77  89 E7        29.68S

$$

PMZ171>174-261100-
FEDERATED STATES OF MICRONESIA-

CITY           SKY/WX    TMP DP  RH WIND       PRES   REMARKS
YAP AIRPORT    CLOUDY    82  79  89 VRB7      29.74R HX  93
CHUUK AP       CLOUDY    81  77  89 NE8       29.75S
POHNPEI AP     NOT AVBL
POHNPEI WSO    LGT RAIN  82  77  83 NE9       29.79S HX  91
KOSRAE AP      NOT AVBL

$$

PMZ181-261100-
REPUBLIC OF THE MARSHALL ISLANDS-

CITY           SKY/WX    TMP DP  RH WIND       PRES   REMARKS
KWAJALEIN AP   PTCLDY    82  68  61 NE20      29.83R
MAJURO AP      NOT AVBL
MAJURO WSO     CLOUDY    82  73  74 NE15      29.80R

$$




USA.gov is the U.S. government's official web portal to all federal, state and local government web resources and services.